User: anonymous   Login
Location: Unspecified
(0.0000°N, 0.0000°E)
Time: 14:04:13
(UTC+00:00)
Language:

deb Delta 139 - Orbit

View from above orbital plane
View from above orbital plane
View from above satellite
View from above satellite

Ground track
Ground track

The orbit data is extracted from the following two-line orbital elements,

1 12265U 78026DJ  24053.95772586  .00004160  00000-0  16615-2 0  9994
2 12265  98.7951 210.2861 0129262  45.3039  70.7617 14.24511596192225
Epoch (UTC): 22 February 2024 22:59:07
Eccentricity: 0.0129262
inclination: 98.7951°
perigee height: 717 km
apogee height: 903 km
right ascension of ascending node: 210.2861°
argument of perigee: 45.3039°
revolutions per day: 14.24511596
mean anomaly at epoch: 70.7617°
orbit number at epoch: 19222

The dashed part of the orbit path shows where the satellite is in the earth's shadow,  

DLR